Eagle River, WI

9:20 AM CST on December 15, 2017 (GMT -0600)
Eagle River Union

Weather History for KEGV - April, 2014

Change the Weather History Date:

Sunday, April 6, 2014

  Actual Average Record
Temperature  
Mean Temperature 41 °F -  
Max Temperature 53 °F 53 °F 76 °F (1991)
Min Temperature 30 °F 31 °F -4 °F (2003)
Degree Days  
Heating Degree Days 24    
Moisture  
Dew Point 27 °F    
Average Humidity 58    
Maximum Humidity 83    
Minimum Humidity 38    
Precipitation  
Precipitation 0.00 in - - ()
Sea Level Pressure  
Sea Level Pressure 29.89 in    
Wind  
Wind Speed 4 mph (SW)    
Max Wind Speed 14 mph    
Max Gust Speed 23 mph    
Visibility 10 miles    
Events Rain    
Averages and records for this station are not official NWS values.
T = Trace of Precipitation, MM = Missing Value Source: NWS Daily Summary

Daily Weather History Graph

Daily Weather History Graph

Search for Another Location

Airport or City:

Trip Planner

Search our weather history database for the weather conditions in past years. The results will help you decide how hot, cold, wet, or windy it might be!

Date:

Astronomy

Apr. 06, 2014 Rise Set
Actual Time 6:27 AM CDT 7:32 PM CDT
Civil Twilight 5:57 AM CDT 8:02 PM CDT
Nautical Twilight 5:20 AM CDT 8:39 PM CDT
Astronomical Twilight 4:41 AM CDT 9:18 PM CDT
Moon 11:18 AM CDT (4/6) 1:38 AM CDT (4/6)
Length of Visible Light 14h 05m
Length of Day
13h 04m
Waxing Crescent, 44% of the Moon is Illuminated
Apr 6
Waxing Crescent
Apr 7
First Quarter
Apr 15
Full
Apr 22
Last Quarter
Apr 29
New

Hourly Weather History & Observations

Time (CDT) Temp. Windchill Dew Point Humidity Pressure Visibility Wind Dir Wind Speed Gust Speed Precip Events Conditions
12:15 AM 32.0 °F - 22.8 °F 69% 29.98 in 10.0 mi Calm Calm - N/A   Clear
12:35 AM 30.9 °F - 22.8 °F 72% 29.98 in 10.0 mi Calm Calm - N/A   Clear
12:55 AM 31.8 °F - 23.2 °F 70% 29.97 in 10.0 mi Calm Calm - N/A   Mostly Cloudy
1:15 AM 32.0 °F 28.7 °F 23.7 °F 71% 29.99 in 10.0 mi West 3.5 mph - N/A   Overcast
1:35 AM 32.0 °F 27.5 °F 23.9 °F 72% 29.99 in 10.0 mi WSW 4.6 mph - N/A   Mostly Cloudy
1:55 AM 32.9 °F - 24.4 °F 71% 29.99 in 10.0 mi Calm Calm - N/A   Overcast
2:15 AM 33.4 °F - 23.9 °F 68% 29.99 in 10.0 mi Calm Calm - N/A   Overcast
2:35 AM 33.8 °F - 24.3 °F 68% 29.98 in 10.0 mi Calm Calm - N/A   Overcast
2:55 AM 32.0 °F - 24.6 °F 74% 29.98 in 10.0 mi Calm Calm - N/A   Overcast
3:15 AM 34.0 °F 31.0 °F 24.6 °F 69% 29.97 in 10.0 mi South 3.5 mph - N/A   Overcast
3:35 AM 33.8 °F - 24.6 °F 69% 29.97 in 10.0 mi Calm Calm - N/A   Overcast
3:55 AM 34.9 °F 32.0 °F 24.8 °F 67% 29.96 in 10.0 mi South 3.5 mph - N/A   Overcast
4:15 AM 35.6 °F 31.7 °F 24.8 °F 65% 29.96 in 10.0 mi South 4.6 mph - N/A   Overcast
4:35 AM 36.0 °F - 25.5 °F 66% 29.96 in 10.0 mi Calm Calm - N/A   Overcast
4:55 AM 35.2 °F - 25.3 °F 67% 29.96 in 10.0 mi Calm Calm - N/A   Mostly Cloudy
5:15 AM 34.0 °F - 25.5 °F 71% 29.96 in 10.0 mi Calm Calm - N/A   Overcast
5:55 AM 35.4 °F - 25.2 °F 66% 29.95 in 10.0 mi Calm Calm - N/A   Overcast
6:35 AM 35.8 °F - 24.8 °F 64% 29.96 in 10.0 mi Calm Calm - N/A   Overcast
6:55 AM 36.0 °F 32.1 °F 24.8 °F 64% 29.96 in 10.0 mi South 4.6 mph - N/A   Overcast
7:15 AM 37.0 °F - 24.8 °F 61% 29.96 in 10.0 mi Calm Calm - N/A   Overcast
7:35 AM 37.8 °F 35.3 °F 24.8 °F 60% 29.96 in 10.0 mi SSW 3.5 mph - N/A   Overcast
7:55 AM 38.5 °F 35.0 °F 25.0 °F 58% 29.96 in 10.0 mi SSW 4.6 mph - N/A Rain Light Rain
8:15 AM 39.4 °F 37.2 °F 25.3 °F 57% 29.95 in 10.0 mi SSW 3.5 mph - N/A   Overcast
8:35 AM 41.0 °F 37.1 °F 25.3 °F 54% 29.95 in 10.0 mi SSW 5.8 mph - N/A   Mostly Cloudy
8:55 AM 42.1 °F 37.7 °F 25.5 °F 52% 29.94 in 10.0 mi SSW 6.9 mph - N/A   Scattered Clouds
9:15 AM 44.1 °F 39.5 °F 25.5 °F 48% 29.93 in 10.0 mi SSW 8.1 mph - N/A   Scattered Clouds
9:35 AM 44.1 °F 39.0 °F 25.5 °F 48% 29.92 in 10.0 mi SSW 9.2 mph 17.3 mph N/A   Scattered Clouds
9:55 AM 45.0 °F 41.2 °F 25.7 °F 47% 29.92 in 10.0 mi SSW 6.9 mph - N/A   Clear
10:15 AM 45.0 °F 39.3 °F 25.7 °F 47% 29.92 in 10.0 mi SW 11.5 mph 16.1 mph N/A   Clear
10:35 AM 45.1 °F 39.9 °F 25.7 °F 47% 29.91 in 10.0 mi SW 10.4 mph 17.3 mph N/A   Clear
10:55 AM 46.6 °F - 25.3 °F 43% 29.91 in 10.0 mi SW 6.9 mph 17.3 mph N/A   Clear
11:15 AM 46.6 °F - 25.9 °F 44% 29.90 in 10.0 mi SW 6.9 mph - N/A   Clear
11:35 AM 48.4 °F - 25.7 °F 41% 29.88 in 10.0 mi SSW 11.5 mph 18.4 mph N/A   Clear
11:55 AM 47.5 °F - 26.1 °F 43% 29.88 in 10.0 mi SW 13.8 mph 18.4 mph N/A   Clear
12:15 PM 47.1 °F - 26.4 °F 45% 29.87 in 10.0 mi SSW 11.5 mph 16.1 mph N/A   Clear
12:35 PM 48.6 °F - 26.4 °F 42% 29.86 in 10.0 mi South 10.4 mph 17.3 mph N/A   Clear
12:55 PM 49.5 °F - 26.2 °F 40% 29.85 in 10.0 mi SW 11.5 mph 16.1 mph N/A   Clear
1:15 PM 50.4 °F - 26.4 °F 39% 29.84 in 10.0 mi SSW 9.2 mph 16.1 mph N/A   Clear
1:35 PM 50.9 °F - 26.2 °F 38% 29.84 in 10.0 mi SSW 11.5 mph 19.6 mph N/A   Clear
1:55 PM 50.2 °F - 26.4 °F 40% 29.84 in 10.0 mi SW 11.5 mph 18.4 mph N/A   Clear
2:15 PM 48.4 °F - 27.1 °F 44% 29.84 in 10.0 mi WSW 9.2 mph 17.3 mph N/A   Scattered Clouds
2:35 PM 50.9 °F - 26.8 °F 39% 29.84 in 10.0 mi SSW 9.2 mph 16.1 mph N/A   Scattered Clouds
2:55 PM 51.3 °F - 27.0 °F 39% 29.83 in 10.0 mi SSW 8.1 mph 19.6 mph N/A   Scattered Clouds
3:15 PM 50.9 °F - 27.5 °F 40% 29.82 in 10.0 mi SW 9.2 mph 16.1 mph N/A   Scattered Clouds
3:35 PM 49.5 °F - 28.2 °F 44% 29.83 in 10.0 mi SW 10.4 mph 20.7 mph N/A   Scattered Clouds
3:55 PM 51.8 °F - 28.0 °F 40% 29.82 in 10.0 mi SW 11.5 mph 18.4 mph N/A   Clear
4:15 PM 52.2 °F - 28.4 °F 40% 29.82 in 10.0 mi SW 11.5 mph 20.7 mph N/A   Clear
4:35 PM 50.7 °F - 28.9 °F 43% 29.82 in 10.0 mi WSW 10.4 mph - N/A   Scattered Clouds
4:55 PM 50.5 °F - 29.7 °F 45% 29.82 in 10.0 mi WSW 12.7 mph 23.0 mph N/A   Clear
5:15 PM 50.5 °F - 30.2 °F 46% 29.82 in 10.0 mi SW 10.4 mph - N/A   Clear
5:35 PM 51.3 °F - 30.7 °F 45% 29.81 in 10.0 mi SSW 8.1 mph - N/A   Clear
5:55 PM 51.1 °F - 30.7 °F 46% 29.81 in 10.0 mi SSW 8.1 mph - N/A   Clear
6:15 PM 52.7 °F - 30.9 °F 43% 29.81 in 10.0 mi SW 4.6 mph - N/A   Scattered Clouds
6:35 PM 52.0 °F - 31.1 °F 45% 29.81 in 10.0 mi SW 3.5 mph - N/A   Clear
6:55 PM 52.3 °F - 31.5 °F 45% 29.81 in 10.0 mi Calm Calm - N/A   Clear
7:15 PM 51.1 °F - 31.6 °F 47% 29.81 in 10.0 mi Calm Calm - N/A   Clear
7:35 PM 47.5 °F - 31.1 °F 53% 29.81 in 10.0 mi Calm Calm - N/A   Clear
7:55 PM 41.7 °F - 30.2 °F 64% 29.82 in 10.0 mi Calm Calm - N/A   Scattered Clouds
8:15 PM 39.7 °F - 29.3 °F 66% 29.82 in 10.0 mi Calm Calm - N/A   Mostly Cloudy
8:35 PM 37.8 °F - 29.1 °F 71% 29.82 in 10.0 mi Calm Calm - N/A   Scattered Clouds
8:55 PM 37.0 °F - 29.7 °F 75% 29.83 in 10.0 mi Calm Calm - N/A   Mostly Cloudy
9:15 PM 36.5 °F - 29.5 °F 76% 29.83 in 10.0 mi Calm Calm - N/A   Scattered Clouds
9:35 PM 35.8 °F - 29.5 °F 78% 29.83 in 10.0 mi Calm Calm - N/A   Scattered Clouds
9:55 PM 35.2 °F - 28.8 °F 77% 29.84 in 10.0 mi Calm Calm - N/A   Mostly Cloudy
10:15 PM 34.9 °F - 28.9 °F 79% 29.84 in 10.0 mi Calm Calm - N/A   Mostly Cloudy
10:35 PM 34.9 °F - 29.1 °F 79% 29.84 in 10.0 mi Calm Calm - N/A   Scattered Clouds
10:55 PM 32.0 °F - 27.3 °F 83% 29.84 in 10.0 mi Calm Calm - N/A   Scattered Clouds
11:15 PM 32.7 °F - 27.9 °F 82% 29.83 in 10.0 mi Calm Calm - N/A   Scattered Clouds
11:35 PM 32.9 °F - 27.9 °F 82% 29.83 in 10.0 mi Calm Calm - N/A   Scattered Clouds
11:55 PM 31.5 °F - 27.0 °F 83% 29.83 in 10.0 mi Calm Calm - N/A   Scattered Clouds